Chattanooga, TN

7:54 AM EST on November 20, 2017 (GMT -0500)
Lovell

Weather History for KCHA - July, 2013

Change the Weather History Date:

Monday, July 1, 2013

  Actual Average Record
Temperature  
Mean Temperature 74 °F 79 °F  
Max Temperature 82 °F 90 °F 107 °F (2012)
Min Temperature 66 °F 69 °F 54 °F (1950)
Cooling Degree Days 9 14  
Month to date cooling degree days 9 14  
Year to date cooling degree days 584 555  
Since 1 June cooling degree days 408 359  
Growing Degree Days 24 (Base 50)    
Moisture  
Dew Point 66 °F    
Average Humidity 74    
Maximum Humidity 93    
Minimum Humidity 54    
Precipitation  
Precipitation 0.55 in 0.16 in 2.66 in (2003)
Month to date precipitation 0.55 0.16  
Year to date precipitation 39.69 27.03  
Snow  
Snow 0.00 in - - ()
Month to date snowfall 0.0  
Since 1 June snowfall 0.0  
Snow Depth 0.00 in    
Sea Level Pressure  
Sea Level Pressure 29.84 in    
Wind  
Wind Speed 3 mph (WNW)    
Max Wind Speed 14 mph    
Max Gust Speed 20 mph    
Visibility 7 miles    
Events Fog , Rain , Thunderstorm    
T = Trace of Precipitation, MM = Missing Value Source: NWS Daily Summary

Daily Weather History Graph

Daily Weather History Graph

Search for Another Location

Airport or City:

Trip Planner

Search our weather history database for the weather conditions in past years. The results will help you decide how hot, cold, wet, or windy it might be!

Date:

Astronomy

Jul. 01, 2013 Rise Set
Actual Time 6:30 AM EDT 8:58 PM EDT
Civil Twilight 6:00 AM EDT 9:28 PM EDT
Nautical Twilight 5:24 AM EDT 10:04 PM EDT
Astronomical Twilight 4:44 AM EDT 10:45 PM EDT
Moon 1:51 AM EDT (7/1) 3:20 PM EDT (7/1)
Length of Visible Light 15h 27m
Length of Day
14h 28m
Waning Crescent, 35% of the Moon is Illuminated
Jul 1
Waning Crescent
Jul 8
New
Jul 15
First Quarter
Jul 22
Full
Jul 29
Last Quarter

Hourly Weather History & Observations

Time (EDT) Temp. Heat Index Dew Point Humidity Pressure Visibility Wind Dir Wind Speed Gust Speed Precip Events Conditions
12:00 AM 69.8 °F - 66.2 °F 88% 29.81 in 10.0 mi North 8.1 mph - 0.00 in Rain Light Rain
12:53 AM 69.1 °F - 64.9 °F 87% 29.78 in 10.0 mi North 3.5 mph - 0.00 in   Mostly Cloudy
1:53 AM 69.1 °F - 66.0 °F 90% 29.79 in 10.0 mi Calm Calm - N/A   Partly Cloudy
2:53 AM 68.0 °F - 64.0 °F 87% 29.78 in 10.0 mi Calm Calm - N/A   Partly Cloudy
3:53 AM 66.9 °F - 64.9 °F 93% 29.78 in 10.0 mi NW 3.5 mph - N/A   Scattered Clouds
4:53 AM 66.9 °F - 64.9 °F 93% 29.78 in 10.0 mi Calm Calm - N/A   Clear
5:37 AM 66.2 °F - 64.4 °F 94% 29.81 in 10.0 mi Calm Calm - N/A   Partly Cloudy
5:53 AM 66.9 °F - 64.9 °F 93% 29.79 in 5.0 mi Calm Calm - N/A   Scattered Clouds
6:34 AM 66.2 °F - 64.4 °F 94% 29.83 in 4.0 mi Calm Calm - N/A Fog Patches of Fog
6:53 AM 66.9 °F - 64.9 °F 93% 29.81 in 3.0 mi Calm Calm - N/A Fog Patches of Fog
7:38 AM 68.0 °F - 64.4 °F 88% 29.85 in 4.0 mi Calm Calm - N/A Fog Patches of Fog
7:53 AM 68.0 °F - 66.0 °F 93% 29.83 in 4.0 mi Calm Calm - N/A Fog Patches of Fog
8:53 AM 70.0 °F - 66.0 °F 87% 29.85 in 3.0 mi Calm Calm - N/A Fog Patches of Fog
9:34 AM 71.6 °F - 66.2 °F 83% 29.88 in 3.0 mi Calm Calm - N/A Fog Patches of Fog
9:53 AM 72.0 °F - 66.9 °F 84% 29.86 in 4.0 mi WNW 3.5 mph - N/A   Mostly Cloudy
10:53 AM 73.9 °F - 68.0 °F 82% 29.86 in 5.0 mi Variable 3.5 mph - N/A   Mostly Cloudy
11:53 AM 77.0 °F - 68.0 °F 74% 29.86 in 7.0 mi Variable 4.6 mph - N/A   Mostly Cloudy
12:46 PM 77.0 °F - 66.2 °F 69% 29.86 in 5.0 mi SSW 8.1 mph - 0.00 in Rain , Thunderstorm Light Thunderstorms and Rain
12:53 PM 77.0 °F - 68.0 °F 74% 29.84 in 4.0 mi SW 8.1 mph - 0.00 in Rain , Thunderstorm Light Thunderstorms and Rain
1:26 PM 75.2 °F - 69.8 °F 83% 29.86 in 10.0 mi West 8.1 mph - 0.04 in Rain Light Rain
1:53 PM 75.9 °F - 69.1 °F 79% 29.85 in 10.0 mi WNW 4.6 mph - 0.04 in   Mostly Cloudy
2:53 PM 80.1 °F 81.9 °F 64.9 °F 60% 29.81 in 10.0 mi ESE 5.8 mph - N/A   Mostly Cloudy
3:53 PM 80.1 °F 82.3 °F 66.9 °F 64% 29.82 in 10.0 mi South 5.8 mph - N/A   Mostly Cloudy
4:21 PM 80.6 °F 82.7 °F 66.2 °F 61% 29.85 in 10.0 mi SE 5.8 mph - N/A Thunderstorm Thunderstorm
4:45 PM 75.2 °F - 60.8 °F 61% 29.86 in 10.0 mi WNW 5.8 mph - N/A   Mostly Cloudy
4:53 PM 75.9 °F - 60.1 °F 58% 29.84 in 10.0 mi Calm Calm - N/A   Mostly Cloudy
5:53 PM 81.0 °F 82.2 °F 63.0 °F 54% 29.82 in 10.0 mi Calm Calm - N/A   Mostly Cloudy
6:53 PM 80.1 °F 81.7 °F 64.0 °F 58% 29.82 in 10.0 mi NW 3.5 mph - N/A   Mostly Cloudy
7:53 PM 78.1 °F - 66.0 °F 66% 29.84 in 10.0 mi North 5.8 mph - N/A   Mostly Cloudy
8:53 PM 78.1 °F - 66.9 °F 68% 29.84 in 7.0 mi SE 6.9 mph - N/A   Mostly Cloudy
9:04 PM 78.8 °F - 66.2 °F 65% 29.88 in 7.0 mi Calm Calm - N/A Thunderstorm Thunderstorm
9:19 PM 73.4 °F - 64.4 °F 73% 29.89 in 2.5 mi West 10.4 mph 19.6 mph 0.00 in Rain , Thunderstorm Light Thunderstorms and Rain
9:23 PM 71.6 °F - 66.2 °F 83% 29.90 in 1.0 mi West 11.5 mph 19.6 mph 0.00 in Rain , Thunderstorm Heavy Thunderstorms and Rain
9:29 PM 69.8 °F - 66.2 °F 88% 29.91 in 0.8 mi West 5.8 mph 18.4 mph 0.17 in Rain , Thunderstorm Heavy Thunderstorms and Rain
9:40 PM 69.8 °F - 68.0 °F 94% 29.90 in 4.0 mi East 9.2 mph - 0.45 in Rain , Thunderstorm Thunderstorms and Rain
9:53 PM 69.1 °F - 66.9 °F 93% 29.88 in 6.0 mi ENE 3.5 mph - 0.47 in Thunderstorm Mostly Cloudy
10:04 PM 69.8 °F - 66.2 °F 88% 29.90 in 7.0 mi SE 5.8 mph - N/A   Mostly Cloudy
10:53 PM 69.1 °F - 66.0 °F 90% 29.90 in 8.0 mi North 3.5 mph - 0.02 in Rain Rain
11:53 PM 69.1 °F - 66.0 °F 90% 29.91 in 6.0 mi Calm Calm - 0.01 in Rain Rain